Flag for China Weather past 2 weeks in Guangzhou, Guangdong, China

Now
90 °F

Partly sunny.


Feels Like: 103 °F
Forecast: 75 / 84 °F
Wind: 6 mph from South

Location: Canton Airport

Current Time: May 4, 2015 at 2:01:08 PM

Latest Report: May 4, 2015 at 1:30 PM


Visibility: 4 mi

Pressure: 29.77 "Hg

Humidity: 67%

Dew point: 77 °F

Location of GuangzhouLocation

Historic Weather in Guangzhou — Graph

°F

Guangzhou temperature yesterday

Maximum temperature yesterday: 93 °F (at 2:00 PM)
Minimum temperature yesterday: 77 °F (at 2:00 AM)
Average temperature yesterday: 82 °F

Past Weeks' High & Low Weather Summary

 TemperatureHumidityPressure
High93 °F (May 3, 2:00 PM)100% (Apr 26, 4:30 AM)30.12 "Hg (Apr 26, 4:30 AM)
Low66 °F (Apr 20, 8:00 PM)45% (Apr 22, 3:00 PM)29.65 "Hg (Apr 19, 3:30 PM)
Average78 °F77%29.89 "Hg
* Reported Apr 19 12:00 Noon — May 4 12:30 PM, Guangzhou, Weather by CustomWeather, © 2015

Note: Actual official high and low records may vary slightly from our data, if they occured in-between our weather recording intervals... More about our weather records

Advertising

Guangzhou weather history for previous 24 hours

 ConditionsComfort  
Time TempWeatherWind HumidityBarometerVisibility
12:30 PM
Mon, May 4
90 °FPartly sunny.8 mph67%29.80 "Hg4 mi
11:30 AM88 °FPartly sunny.8 mph75%29.83 "Hg4 mi
11:00 AM86 °FBroken clouds.3 mph75%29.83 "Hg4 mi
10:30 AM86 °FBroken clouds.6 mph79%29.83 "Hg4 mi
10:00 AM86 °FBroken clouds.6 mph79%29.83 "Hg4 mi
9:30 AM84 °FBroken clouds.6 mph84%29.83 "Hg4 mi
9:00 AM82 °FFog.1 mph89%29.83 "Hg3 mi
8:30 AM81 °FFog.No wind94%29.83 "Hg2 mi
8:00 AM81 °FFog.1 mph94%29.83 "Hg2 mi
7:30 AM81 °FFog.1 mph94%29.83 "Hg2 mi
7:00 AM81 °FFog.1 mph94%29.83 "Hg2 mi
6:30 AM79 °FFog.1 mph100%29.80 "Hg2 mi
6:00 AM79 °FFog.1 mph100%29.80 "Hg2 mi
5:30 AM79 °FFog.1 mph94%29.80 "Hg2 mi
4:30 AM79 °FFog.No wind100%29.77 "Hg2 mi
4:00 AM79 °FFog.No wind94%29.77 "Hg2 mi
3:30 AM79 °FFog.1 mph94%29.77 "Hg2 mi
3:00 AM79 °FFog.3 mph94%29.77 "Hg2 mi
2:30 AM79 °FFog.No wind94%29.77 "Hg2 mi
2:00 AM79 °FFog.1 mph94%29.80 "Hg2 mi
1:30 AM79 °FFog.1 mph94%29.80 "Hg2 mi
1:00 AM79 °FFog.1 mph94%29.80 "Hg2 mi
12:30 AM79 °FFog.3 mph94%29.80 "Hg2 mi
12:00 AM79 °FPassing clouds.1 mph94%29.83 "Hg4 mi
11:30 PM
Sun, May 3
79 °FPassing clouds.1 mph94%29.80 "Hg4 mi
11:00 PM79 °FPassing clouds.3 mph94%29.83 "Hg4 mi
10:30 PM79 °FSprinkles. Partly cloudy.6 mph94%29.80 "Hg4 mi
10:00 PM79 °FThunderstorms. Partly cloudy.3 mph94%29.83 "Hg4 mi
9:30 PM79 °FThunderstorms. Partly cloudy.No wind94%29.80 "Hg4 mi
9:00 PM79 °FThunderstorms. Partly cloudy.No wind89%29.80 "Hg4 mi
8:30 PM79 °FThunderstorms. Passing clouds.1 mph89%29.80 "HgN/A
8:00 PM79 °FThunderstorms. Passing clouds.6 mph89%29.77 "HgN/A
7:30 PM79 °FThunderstorms. Passing clouds.6 mph89%29.77 "Hg4 mi
7:00 PM79 °FThunderstorms. Passing clouds.13 mph89%29.74 "Hg4 mi
6:30 PM77 °FThunderstorms. Broken clouds.20 mph94%29.74 "Hg2 mi
6:00 PM86 °FPartly sunny.10 mph75%29.68 "HgN/A
5:30 PM88 °FSprinkles. Partly sunny.8 mph70%29.68 "HgN/A
5:00 PM86 °FSprinkles. Partly sunny.8 mph75%29.71 "HgN/A
4:30 PM88 °FPartly sunny.10 mph75%29.68 "HgN/A
4:00 PM90 °FPartly sunny.10 mph71%29.71 "HgN/A
3:30 PM88 °FPartly sunny.13 mph70%29.71 "HgN/A
3:00 PM93 °FPartly sunny.3 mph56%29.71 "HgN/A
2:30 PM93 °FPartly sunny.3 mph56%29.74 "HgN/A
2:00 PM93 °FPartly sunny.3 mph56%29.74 "HgN/A
Weather by CustomWeather, © 2015

See weather overviewHow to use our weather pages